Home   Weather   Pratteln   Past weeks

Flag for Switzerland Past Weather in Pratteln, Basel-Land, Switzerland — Yesterday and Last 2 Weeks

Now
18 °F

Passing clouds.


Feels Like: 18 °F
Forecast: 17 / 24 °F
Wind: 2 mph from North

Location: Bale-Mulhouse

Current Time: Jan 18, 2017 at 5:41:07 am

Latest Report: Jan 18, 2017 at 5:00 am


Visibility: N/A

Pressure: 30.39 "Hg

Humidity: 79%

Dew Point: 12 °F

Location of PrattelnLocation

Past Weather in Pratteln — Graph

°F

Pratteln Temperature Yesterday

Maximum temperature yesterday: 30 °F (at 1:30 pm)
Minimum temperature yesterday: 23 °F (at 6:00 am)
Average temperature yesterday: 26 °F

High & Low Weather Summary for the Past Weeks

 TemperatureHumidityPressure
High50 °F (Jan 12, 11:00 pm)100% (Jan 3, 5:00 am)30.69 "Hg (Jan 3, 5:00 am)
Low9 °F (Jan 7, 2:30 am)59% (Jan 7, 12:30 pm)29.45 "Hg (Jan 12, 11:30 pm)
Average30 °F84%30.20 "Hg
* Reported Jan 3 4:00 am — Jan 18 4:30 am, Pratteln, Weather by CustomWeather, © 2017

Note: Actual official high and low records may vary slightly from our data, if they occured in-between our weather recording intervals... More about our weather records

Advertising

Pratteln Weather History for the Previous 24 Hours

Scroll right to see more
 ConditionsComfort  
Time TempWeatherWind HumidityBarometerVisibility
4:30 am
Wed, Jan 18
18 °FPassing clouds.1 mph86%30.39 "HgN/A
4:00 am19 °FPassing clouds.2 mph79%30.39 "HgN/A
3:30 am19 °FPassing clouds.2 mph79%30.39 "HgN/A
3:00 am19 °FPassing clouds.2 mph79%30.39 "HgN/A
2:30 am21 °FPassing clouds.5 mph74%30.42 "HgN/A
2:00 am23 °FPassing clouds.6 mph74%30.39 "HgN/A
1:30 am23 °FPassing clouds.6 mph74%30.39 "HgN/A
1:00 am23 °FPassing clouds.6 mph74%30.42 "HgN/A
12:30 am25 °FPassing clouds.8 mph69%30.39 "HgN/A
12:00 am23 °FPassing clouds.5 mph74%30.39 "HgN/A
11:30 pm
Tue, Jan 17
25 °FPassing clouds.5 mph69%30.39 "HgN/A
11:00 pm25 °FPassing clouds.6 mph69%30.39 "HgN/A
10:30 pm27 °FPassing clouds.8 mph64%30.39 "HgN/A
10:00 pm27 °FPassing clouds.10 mph64%30.39 "HgN/A
9:30 pm27 °FPassing clouds.6 mph64%30.39 "HgN/A
9:00 pm27 °FPassing clouds.7 mph69%30.39 "HgN/A
8:30 pm27 °FPassing clouds.9 mph69%30.39 "HgN/A
8:00 pm27 °FOvercast.7 mph69%30.39 "HgN/A
7:30 pm27 °FPassing clouds.8 mph69%30.39 "HgN/A
7:00 pm27 °FPassing clouds.10 mph69%30.39 "HgN/A
6:30 pm27 °FPassing clouds.10 mph69%30.39 "HgN/A
6:00 pm27 °FPassing clouds.12 mph69%30.39 "HgN/A
5:30 pm27 °FPassing clouds.12 mph74%30.36 "HgN/A
5:00 pm27 °FScattered clouds.12 mph69%30.36 "HgN/A
4:30 pm28 °FScattered clouds.12 mph64%30.36 "HgN/A
4:00 pm28 °FScattered clouds.13 mph59%30.36 "HgN/A
3:30 pm28 °FScattered clouds.14 mph59%30.36 "HgN/A
3:00 pm30 °FScattered clouds.14 mph59%30.36 "HgN/A
2:30 pm30 °FScattered clouds.12 mph59%30.36 "HgN/A
2:00 pm28 °FPartly sunny.13 mph64%30.36 "HgN/A
1:30 pm30 °FScattered clouds.12 mph59%30.36 "HgN/A
1:00 pm28 °FScattered clouds.14 mph64%30.36 "HgN/A
12:30 pm28 °FPassing clouds.15 mph64%30.36 "HgN/A
12:00 pm28 °FPassing clouds.15 mph69%30.36 "HgN/A
11:30 am27 °FPassing clouds.17 mph69%30.39 "HgN/A
11:00 am27 °FPassing clouds.15 mph69%30.39 "HgN/A
10:30 am25 °FPassing clouds.14 mph80%30.39 "HgN/A
10:00 am25 °FPassing clouds.12 mph80%30.39 "HgN/A
9:30 am23 °FPassing clouds.12 mph86%30.36 "HgN/A
9:00 am23 °FPassing clouds.10 mph86%30.36 "HgN/A
8:30 am23 °FScattered clouds.13 mph86%30.36 "HgN/A
8:00 am23 °FPassing clouds.14 mph86%30.36 "HgN/A
7:30 am23 °FPassing clouds.10 mph93%30.36 "HgN/A
7:00 am23 °FPassing clouds.12 mph86%30.33 "HgN/A
6:30 am23 °FPassing clouds.12 mph86%30.33 "HgN/A
6:00 am23 °FPassing clouds.9 mph86%30.33 "HgN/A
5:30 am25 °FPassing clouds.12 mph80%30.33 "HgN/A
5:00 am25 °FPassing clouds.14 mph80%30.30 "HgN/A
Weather by CustomWeather, © 2017

See weather overviewHow to use our weather pages